08-08-2023, 00:00:04,    267,    0.9,   10.9,   0.00,   0.00, 1014.2,   99.0, -999.0
08-08-2023, 00:00:14,    303,    0.3,   10.8,   0.00,   0.00, 1014.1,   98.8, -999.0
08-08-2023, 00:00:24,    303,    0.0,   10.8,   0.00,   0.00, 1014.1,   98.6, -999.0
08-08-2023, 00:00:34,    303,    0.0,   10.8,   0.00,   0.00, 1014.1,   98.6, -999.0
08-08-2023, 00:00:44,    303,    0.0,   10.7,   0.00,   0.00, 1014.1,   98.6, -999.0
08-08-2023, 00:00:54,    303,    0.0,   10.8,   0.00,   0.00, 1014.1,   98.6, -999.0
08-08-2023, 00:01:04,    303,    0.0,   10.8,   0.00,   0.00, 1014.1,   98.7, -999.0
08-08-2023, 00:01:14,    302,    0.2,   10.8,   0.00,   0.00, 1014.2,   98.9, -999.0
08-08-2023, 00:01:24,    303,    0.2,   10.8,   0.00,   0.00, 1014.1,   98.8, -999.0
08-08-2023, 00:01:34,    303,    0.0,   10.8,   0.00,   0.00, 1014.0,   98.6, -999.0
08-08-2023, 00:01:44,    303,    0.0,   10.7,   0.00,   0.00, 1014.1,   98.7, -999.0
08-08-2023, 00:01:54,    303,    0.0,   10.8,   0.00,   0.00, 1014.1,   98.6, -999.0
08-08-2023, 00:02:04,    303,    0.4,   10.8,   0.00,   0.00, 1014.1,   98.9, -999.0
08-08-2023, 00:02:14,    301,    0.4,   10.9,   0.00,   0.00, 1014.2,   98.9, -999.0
08-08-2023, 00:02:24,    300,    0.1,   10.8,   0.00,   0.00, 1014.1,   98.7, -999.0
08-08-2023, 00:02:34,    299,    0.3,   10.8,   0.00,   0.00, 1014.1,   99.0, -999.0
08-08-2023, 00:02:43,    299,    0.0,   10.8,   0.00,   0.00, 1014.1,   98.6, -999.0
08-08-2023, 00:02:54,    299,    0.0,   10.8,   0.00,   0.00, 1014.1,   98.7, -999.0
08-08-2023, 00:03:04,    299,    0.0,   10.8,   0.00,   0.00, 1014.1,   98.7, -999.0
08-08-2023, 00:03:13,    297,    0.5,   10.9,   0.00,   0.00, 1014.2,   99.0, -999.0
08-08-2023, 00:03:24,    296,    0.9,   10.9,   0.00,   0.00, 1014.2,   99.0, -999.0
08-08-2023, 00:03:34,    253,    0.6,   10.9,   0.00,   0.00, 1014.2,   99.0, -999.0
08-08-2023, 00:03:43,    251,    0.4,   10.8,   0.00,   0.00, 1014.2,   99.0, -999.0
08-08-2023, 00:03:53,    237,    1.3,   10.8,   0.00,   0.00, 1014.2,   99.0, -999.0
08-08-2023, 00:04:04,    248,    0.9,   10.8,   0.00,   0.00, 1014.2,   98.9, -999.0
08-08-2023, 00:04:14,    248,    0.0,   10.7,   0.00,   0.00, 1014.1,   98.6, -999.0
08-08-2023, 00:04:23,    248,    0.0,   10.7,   0.00,   0.00, 1014.1,   98.7, -999.0
08-08-2023, 00:04:35,    248,    0.4,   10.8,   0.00,   0.00, 1014.2,   99.0, -999.0
08-08-2023, 00:04:44,    249,    1.0,   10.9,   0.00,   0.00, 1014.2,   99.0, -999.0
08-08-2023, 00:04:53,    248,    0.8,   10.9,   0.00,   0.00, 1014.2,   99.0, -999.0
08-08-2023, 00:05:03,    248,    0.9,   10.8,   0.00,   0.00, 1014.2,   99.0, -999.0
08-08-2023, 00:05:13,    251,    1.0,   10.8,   0.00,   0.00, 1014.2,   99.0, -999.0
08-08-2023, 00:05:23,    251,    0.9,   10.8,   0.00,   0.00, 1014.2,   99.0, -999.0
08-08-2023, 00:05:33,    251,    0.2,   10.7,   0.00,   0.00, 1014.2,   98.9, -999.0
08-08-2023, 00:05:43,    251,    0.1,   10.7,   0.00,   0.00, 1014.2,   98.9, -999.0
08-08-2023, 00:05:53,    251,    0.3,   10.8,   0.00,   0.00, 1014.2,   99.0, -999.0
08-08-2023, 00:06:03,    251,    0.1,   10.7,   0.00,   0.00, 1014.1,   98.8, -999.0
08-08-2023, 00:06:13,    250,    0.2,   10.8,   0.00,   0.00, 1014.1,   98.9, -999.0
08-08-2023, 00:06:23,    250,    0.3,   10.8,   0.00,   0.00, 1014.2,   98.9, -999.0
08-08-2023, 00:06:33,    249,    0.6,   10.8,   0.00,   0.00, 1014.2,   99.0, -999.0
08-08-2023, 00:06:43,    249,    0.0,   10.7,   0.00,   0.00, 1014.1,   98.6, -999.0
08-08-2023, 00:06:53,    249,    0.0,   10.7,   0.00,   0.00, 1014.1,   98.6, -999.0
08-08-2023, 00:07:03,    251,    0.0,   10.7,   0.00,   0.00, 1014.1,   98.6, -999.0
08-08-2023, 00:07:13,    254,    0.7,   10.7,   0.00,   0.00, 1014.1,   99.0, -999.0
08-08-2023, 00:07:23,    254,    0.0,   10.7,   0.00,   0.00, 1014.1,   98.8, -999.0
08-08-2023, 00:07:33,    253,    0.7,   10.7,   0.00,   0.00, 1014.1,   98.9, -999.0
08-08-2023, 00:07:43,    253,    0.8,   10.8,   0.00,   0.00, 1014.2,   99.0, -999.0
08-08-2023, 00:07:53,    250,    0.0,   10.7,   0.00,   0.00, 1014.1,   98.7, -999.0
08-08-2023, 00:08:03,    252,    0.0,   10.7,   0.00,   0.00, 1014.1,   98.7, -999.0
08-08-2023, 00:08:13,    253,    0.0,   10.7,   0.00,   0.00, 1014.1,   98.6, -999.0
08-08-2023, 00:08:23,    253,    0.0,   10.7,   0.00,   0.00, 1014.1,   98.7, -999.0
08-08-2023, 00:08:33,    253,    0.0,   10.7,   0.00,   0.00, 1014.1,   98.6, -999.0
08-08-2023, 00:08:43,    253,    0.0,   10.7,   0.00,   0.00, 1014.1,   98.8, -999.0
08-08-2023, 00:08:53,    253,    0.0,   10.7,   0.00,   0.00, 1014.1,   98.7, -999.0
08-08-2023, 00:09:03,    253,    0.0,   10.7,   0.00,   0.00, 1014.1,   98.7, -999.0
08-08-2023, 00:09:13,    253,    0.0,   10.7,   0.00,   0.00, 1014.1,   98.7, -999.0
08-08-2023, 00:09:23,    253,    0.1,   10.7,   0.00,   0.00, 1014.1,   98.8, -999.0
08-08-2023, 00:09:33,    253,    0.0,   10.7,   0.00,   0.00, 1014.1,   98.7, -999.0
08-08-2023, 00:09:43,    253,    0.2,   10.7,   0.00,   0.00, 1014.2,   98.9, -999.0
08-08-2023, 00:09:53,    254,    0.1,   10.7,   0.00,   0.00, 1014.1,   98.7, -999.0
08-08-2023, 00:10:03,    254,    0.3,   10.7,   0.00,   0.00, 1014.2,   99.1, -999.0
08-08-2023, 00:10:12,    253,    0.0,   10.7,   0.00,   0.00, 1014.1,   98.8, -999.0
08-08-2023, 00:10:23,    254,    0.3,   10.7,   0.00,   0.00, 1014.1,   98.8, -999.0
08-08-2023, 00:10:33,    254,    0.3,   10.7,   0.00,   0.00, 1014.1,   98.8, -999.0
08-08-2023, 00:10:42,    255,    1.1,   10.7,   0.00,   0.00, 1014.2,   99.0, -999.0
08-08-2023, 00:10:52,    254,    0.4,   10.7,   0.00,   0.00, 1014.2,   98.9, -999.0
08-08-2023, 00:11:03,    254,    0.0,   10.7,   0.00,   0.00, 1014.1,   98.6, -999.0
08-08-2023, 00:11:13,    254,    0.0,   10.5,   0.00,   0.00, 1014.1,   98.6, -999.0
08-08-2023, 00:11:22,    259,    0.9,   10.7,   0.00,   0.00, 1014.1,   99.0, -999.0
08-08-2023, 00:11:33,    259,    0.5,   10.7,   0.00,   0.00, 1014.2,   99.0, -999.0
08-08-2023, 00:11:43,    259,    0.0,   10.7,   0.00,   0.00, 1014.1,   98.7, -999.0
08-08-2023, 00:11:52,    259,    0.0,   10.6,   0.00,   0.00, 1014.1,   98.6, -999.0
08-08-2023, 00:12:02,    259,    0.4,   10.7,   0.00,   0.00, 1014.2,   99.0, -999.0
08-08-2023, 00:12:13,    260,    0.0,   10.7,   0.00,   0.00, 1014.1,   98.6, -999.0
08-08-2023, 00:12:22,    321,    0.2,   10.7,   0.00,   0.00, 1014.1,   98.8, -999.0
08-08-2023, 00:12:32,    321,    0.0,   10.6,   0.00,   0.00, 1014.1,   98.6, -999.0
08-08-2023, 00:12:42,    320,    0.0,   10.6,   0.00,   0.00, 1014.1,    2.7, -999.0
08-08-2023, 00:12:52,    321,    0.0,   10.6,   0.00,   0.00, 1014.1,   72.0, -999.0
08-08-2023, 00:13:02,    314,    0.2,   10.5,   0.00,   0.00, 1014.2,   39.4, -999.0
08-08-2023, 00:13:12,    314,    0.0,   10.6,   0.00,   0.00, 1014.1,    0.5, -999.0
08-08-2023, 00:13:22,    269,    0.4,   10.6,   0.00,   0.00, 1014.1,    0.7, -999.0
08-08-2023, 00:13:36,    274,    0.5,   10.7,   0.00,   0.00, 1014.1,    0.7, -999.0
08-08-2023, 00:13:42,    274,    1.8,   10.7,   0.00,   0.00, 1014.2,    0.4, -999.0
08-08-2023, 00:13:52,    275,    1.2,   10.7,   0.00,   0.00, 1014.2,    0.8, -999.0
08-08-2023, 00:14:02,    274,    0.4,   10.6,   0.00,   0.00, 1014.1,    0.5, -999.0
08-08-2023, 00:14:12,    275,    0.0,   10.6,   0.00,   0.00, 1014.1,    0.6, -999.0
08-08-2023, 00:14:22,    275,    0.3,   10.6,   0.00,   0.00, 1014.1,    0.6, -999.0
08-08-2023, 00:14:32,    275,    0.0,   10.4,   0.00,   0.00, 1014.1,    0.4, -999.0
08-08-2023, 00:14:42,    275,    0.0,   10.5,   0.00,   0.00, 1014.1,    0.9, -999.0
08-08-2023, 00:14:53,    274,    0.0,   10.6,   0.00,   0.00, 1014.1,    0.8, -999.0
08-08-2023, 00:15:02,    274,    0.4,   10.6,   0.00,   0.00, 1014.1,    0.7, -999.0
08-08-2023, 00:15:12,    274,    0.4,   10.6,   0.00,   0.00, 1014.1,    0.7, -999.0
08-08-2023, 00:15:22,    273,    0.2,   10.7,   0.00,   0.00, 1014.1,    0.7, -999.0
08-08-2023, 00:15:32,    273,    0.1,   10.6,   0.00,   0.00, 1014.1,    0.7, -999.0
08-08-2023, 00:15:42,    274,    0.0,   10.6,   0.00,   0.00, 1014.1,    0.3, -999.0
08-08-2023, 00:15:52,    273,    0.0,   10.6,   0.00,   0.00, 1014.1,    0.6, -999.0
08-08-2023, 00:16:02,    273,    0.0,   10.6,   0.00,   0.00, 1014.1,    0.6, -999.0
08-08-2023, 00:16:12,    273,    0.0,   10.6,   0.00,   0.00, 1014.1,    0.4, -999.0
08-08-2023, 00:16:22,    273,    0.0,   10.6,   0.00,   0.00, 1014.1,    0.6, -999.0
08-08-2023, 00:16:32,    273,    0.0,   10.6,   0.00,   0.00, 1014.1,    0.6, -999.0
08-08-2023, 00:16:42,    273,    0.0,   10.6,   0.00,   0.00, 1014.0,    0.5, -999.0
08-08-2023, 00:16:52,    274,    0.0,   10.6,   0.00,   0.00, 1014.1,    0.7, -999.0
08-08-2023, 00:17:01,    273,    0.1,   10.6,   0.00,   0.00, 1014.0,    0.4, -999.0
08-08-2023, 00:17:12,    273,    0.5,   10.7,   0.00,   0.00, 1014.1,    0.9, -999.0
08-08-2023, 00:17:22,    273,    0.1,   10.6,   0.00,   0.00, 1014.1,    0.5, -999.0
08-08-2023, 00:17:32,    274,    0.0,   10.6,   0.00,   0.00, 1014.0,    0.5, -999.0
08-08-2023, 00:17:41,    273,    0.0,   10.6,   0.00,   0.00, 1014.1,    0.7, -999.0
08-08-2023, 00:17:52,    273,    0.2,   10.6,   0.00,   0.00, 1014.2,    0.7, -999.0
08-08-2023, 00:18:02,    274,    0.4,   10.5,   0.00,   0.00, 1014.1,    1.1, -999.0
08-08-2023, 00:18:11,    273,    0.2,   10.6,   0.00,   0.00, 1014.1,    0.3, -999.0
08-08-2023, 00:18:21,    273,    0.0,   10.5,   0.00,   0.00, 1014.1,    0.6, -999.0
08-08-2023, 00:18:32,    274,    0.0,   10.5,   0.00,   0.00, 1014.1,    0.8, -999.0
08-08-2023, 00:18:41,    273,    0.0,   10.6,   0.00,   0.00, 1014.1,    0.6, -999.0
08-08-2023, 00:18:51,    273,    0.0,   10.5,   0.00,   0.00, 1014.1,    0.6, -999.0
08-08-2023, 00:19:02,    273,    0.0,   10.5,   0.00,   0.00, 1014.1,    0.6, -999.0
08-08-2023, 00:19:12,    278,    0.1,   10.6,   0.00,   0.00, 1014.1,    0.7, -999.0
08-08-2023, 00:19:21,    280,    0.6,   10.7,   0.00,   0.00, 1014.2,    0.8, -999.0
08-08-2023, 00:19:31,    280,    1.2,   10.6,   0.00,   0.00, 1014.2,    1.5, -999.0
08-08-2023, 00:19:42,    279,    0.8,   10.6,   0.00,   0.00, 1014.2,    0.4, -999.0
08-08-2023, 00:19:51,    280,    0.4,   10.6,   0.00,   0.00, 1014.2,    0.7, -999.0
08-08-2023, 00:20:01,    279,    0.7,   10.6,   0.00,   0.00, 1014.2,    0.6, -999.0
08-08-2023, 00:20:11,    279,    0.4,   10.6,   0.00,   0.00, 1014.1,    0.6, -999.0
08-08-2023, 00:20:21,    279,    0.3,   10.6,   0.00,   0.00, 1014.2,    0.6, -999.0
08-08-2023, 00:20:31,    279,    0.2,   10.6,   0.00,   0.00, 1014.2,    0.8, -999.0
08-08-2023, 00:20:41,    277,    0.6,   10.6,   0.00,   0.00, 1014.1,    0.6, -999.0
08-08-2023, 00:20:51,    279,    0.2,   10.6,   0.00,   0.00, 1014.1,    0.7, -999.0
08-08-2023, 00:21:01,    279,    0.0,   10.5,   0.00,   0.00, 1014.1,    0.5, -999.0
08-08-2023, 00:21:11,    281,    0.2,   10.5,   0.00,   0.00, 1014.2,    0.3, -999.0
08-08-2023, 00:21:21,    279,    0.5,   10.5,   0.00,   0.00, 1014.2,    0.8, -999.0
08-08-2023, 00:21:31,    280,    0.2,   10.5,   0.00,   0.00, 1014.2,    0.8, -999.0
08-08-2023, 00:21:41,    279,    0.1,   10.6,   0.00,   0.00, 1014.1,    0.9, -999.0
08-08-2023, 00:21:51,    279,    0.0,   10.6,   0.00,   0.00, 1014.1,    0.7, -999.0
08-08-2023, 00:22:01,    279,    0.0,   10.6,   0.00,   0.00, 1014.1,    0.6, -999.0
08-08-2023, 00:22:11,    279,    0.0,   10.5,   0.00,   0.00, 1014.1,    0.4, -999.0
08-08-2023, 00:22:21,    279,    0.0,   10.6,   0.00,   0.00, 1014.1,    0.7, -999.0
08-08-2023, 00:22:31,    279,    0.6,   10.7,   0.00,   0.00, 1014.2,    1.0, -999.0
08-08-2023, 00:22:41,    279,    0.6,   10.7,   0.00,   0.00, 1014.2,    0.8, -999.0
08-08-2023, 00:22:51,    279,    0.7,   10.6,   0.00,   0.00, 1014.2,    0.9, -999.0
08-08-2023, 00:23:01,    279,    0.1,   10.6,   0.00,   0.00, 1014.1,    0.5, -999.0
08-08-2023, 00:23:11,    279,    0.0,   10.5,   0.00,   0.00, 1014.1,    0.6, -999.0
08-08-2023, 00:23:21,    279,    0.0,   10.5,   0.00,   0.00, 1014.1,    0.7, -999.0
08-08-2023, 00:23:31,    279,    0.0,   10.5,   0.00,   0.00, 1014.1,    0.7, -999.0
08-08-2023, 00:23:41,    279,    0.0,   10.5,   0.00,   0.00, 1014.1,    0.9, -999.0
08-08-2023, 00:23:51,    279,    0.5,   10.6,   0.00,   0.00, 1014.2,    0.7, -999.0
08-08-2023, 00:24:01,    279,    0.0,   10.5,   0.00,   0.00, 1014.1,    0.6, -999.0
08-08-2023, 00:24:11,    279,    0.0,   10.5,   0.00,   0.00, 1014.1,    0.6, -999.0
08-08-2023, 00:24:21,    279,    0.0,   10.5,   0.00,   0.00, 1014.1,    0.6, -999.0
08-08-2023, 00:24:31,    279,    0.0,   10.5,   0.00,   0.00, 1014.1,    0.6, -999.0
08-08-2023, 00:24:40,    279,    0.0,   10.5,   0.00,   0.00, 1014.1,    0.4, -999.0
08-08-2023, 00:24:51,    279,    0.0,   10.5,   0.00,   0.00, 1014.1,    0.6, -999.0
08-08-2023, 00:25:01,    279,    0.0,   10.5,   0.00,   0.00, 1014.1,    0.9, -999.0
08-08-2023, 00:25:11,    279,    0.0,   10.5,   0.00,   0.00, 1014.1,    0.6, -999.0
08-08-2023, 00:25:20,    279,    0.0,   10.5,   0.00,   0.00, 1014.1,    0.5, -999.0
08-08-2023, 00:25:31,    279,    0.8,   10.5,   0.00,   0.00, 1014.2,    0.7, -999.0
08-08-2023, 00:25:41,    279,    0.9,   10.6,   0.00,   0.00, 1014.1,    1.0, -999.0
08-08-2023, 00:25:50,    279,    0.0,   10.5,   0.00,   0.00, 1014.1,    0.5, -999.0
08-08-2023, 00:26:00,    279,    0.0,   10.4,   0.00,   0.00, 1014.1,    0.7, -999.0
08-08-2023, 00:26:11,    279,    0.0,   10.5,   0.00,   0.00, 1014.1,    0.6, -999.0
08-08-2023, 00:26:20,    279,    0.0,   10.5,   0.00,   0.00, 1014.1,    0.6, -999.0
08-08-2023, 00:26:30,    279,    0.0,   10.5,   0.00,   0.00, 1014.1,    0.7, -999.0
08-08-2023, 00:26:40,    279,    0.0,   10.5,   0.00,   0.00, 1014.1,    0.6, -999.0
08-08-2023, 00:26:50,    279,    0.8,   10.5,   0.00,   0.00, 1014.2,    0.5, -999.0
08-08-2023, 00:27:00,    278,    1.1,   10.6,   0.00,   0.00, 1014.2,    1.1, -999.0
08-08-2023, 00:27:10,    276,    1.3,   10.6,   0.00,   0.00, 1014.2,    0.0, -999.0
08-08-2023, 00:27:20,    275,    0.7,   10.5,   0.00,   0.00, 1014.2,    0.5, -999.0
08-08-2023, 00:27:30,    275,    0.7,   10.5,   0.00,   0.00, 1014.1,    0.8, -999.0
08-08-2023, 00:27:40,    275,    1.0,   10.5,   0.00,   0.00, 1014.1,    0.5, -999.0
08-08-2023, 00:27:50,    275,    1.2,   10.4,   0.00,   0.00, 1014.1,    1.2, -999.0
08-08-2023, 00:28:00,    276,    0.9,   10.5,   0.00,   0.00, 1014.1,    0.6, -999.0
08-08-2023, 00:28:10,    275,    0.4,   10.5,   0.00,   0.00, 1014.1,    0.9, -999.0
08-08-2023, 00:28:20,    275,    0.2,   10.4,   0.00,   0.00, 1014.1,    0.7, -999.0
08-08-2023, 00:28:30,    276,    0.5,   10.4,   0.00,   0.00, 1014.1,    0.7, -999.0
08-08-2023, 00:28:40,    275,    0.0,   10.4,   0.00,   0.00, 1014.0,    0.5, -999.0
08-08-2023, 00:28:50,    275,    0.0,   10.4,   0.00,   0.00, 1014.0,    0.6, -999.0
08-08-2023, 00:29:02,    275,    0.2,   10.5,   0.00,   0.00, 1014.1,    0.7, -999.0
08-08-2023, 00:29:10,    275,    0.0,   10.4,   0.00,   0.00, 1014.0,    0.5, -999.0
08-08-2023, 00:29:20,    275,    0.0,   10.4,   0.00,   0.00, 1014.0,    0.4, -999.0
08-08-2023, 00:29:30,    275,    0.0,   10.5,   0.00,   0.00, 1014.0,    0.9, -999.0
08-08-2023, 00:29:40,    275,    0.0,   10.4,   0.00,   0.00, 1014.0,    0.8, -999.0
08-08-2023, 00:29:50,    275,    0.0,   10.4,   0.00,   0.00, 1014.0,    0.6, -999.0
08-08-2023, 00:30:00,    275,    0.0,   10.3,   0.00,   0.00, 1014.0,    0.6, -999.0
08-08-2023, 00:30:10,    275,    0.0,   10.3,   0.00,   0.00, 1014.0,    0.5, -999.0
08-08-2023, 00:30:20,    275,    0.0,   10.4,   0.00,   0.00, 1014.0,    0.6, -999.0
08-08-2023, 00:30:30,    275,    0.0,   10.4,   0.00,   0.00, 1014.0,    0.3, -999.0
08-08-2023, 00:30:40,    275,    0.0,   10.4,   0.00,   0.00, 1014.0,    0.6, -999.0
08-08-2023, 00:30:50,    275,    0.1,   10.4,   0.00,   0.00, 1014.0,    1.0, -999.0
08-08-2023, 00:31:00,    275,    0.2,   10.5,   0.00,   0.00, 1014.0,    0.5, -999.0
08-08-2023, 00:31:10,    275,    0.1,   10.5,   0.00,   0.00, 1014.0,    0.7, -999.0
08-08-2023, 00:31:20,    274,    0.0,   10.5,   0.00,   0.00, 1013.9,    0.7, -999.0
08-08-2023, 00:31:30,    275,    0.0,   10.5,   0.00,   0.00, 1013.9,    0.0, -999.0
08-08-2023, 00:31:40,    274,    0.0,   10.5,   0.00,   0.00, 1013.9,    0.0, -999.0
08-08-2023, 00:31:50,    275,    0.0,   10.4,   0.00,   0.00, 1013.9,    0.5, -999.0
08-08-2023, 00:32:00,    275,    0.0,   10.4,   0.00,   0.00, 1013.9,    0.4, -999.0
08-08-2023, 00:32:10,    275,    0.0,   10.4,   0.00,   0.00, 1013.9,    0.7, -999.0
08-08-2023, 00:32:19,    275,    0.0,   10.5,   0.00,   0.00, 1013.9,    0.8, -999.0
08-08-2023, 00:32:30,    275,    0.0,   10.5,   0.00,   0.00, 1013.9,    1.2, -999.0
08-08-2023, 00:32:40,    274,    0.0,   10.4,   0.00,   0.00, 1013.9,    0.3, -999.0
08-08-2023, 00:32:50,    275,    0.0,   10.5,   0.00,   0.00, 1013.9,    1.0, -999.0
08-08-2023, 00:32:59,    274,    0.0,   10.5,   0.00,   0.00, 1014.0,    0.3, -999.0
08-08-2023, 00:33:09,    274,    0.0,   10.5,   0.00,   0.00, 1013.9,    0.6, -999.0
08-08-2023, 00:33:20,    275,    0.0,   10.4,   0.00,   0.00, 1013.9,    0.7, -999.0
08-08-2023, 00:33:29,    275,    0.0,   10.5,   0.00,   0.00, 1013.9,    0.5, -999.0
08-08-2023, 00:33:39,    274,    0.0,   10.5,   0.00,   0.00, 1013.9,    0.5, -999.0
08-08-2023, 00:33:50,    274,    0.0,   10.5,   0.00,   0.00, 1013.9,    0.6, -999.0
08-08-2023, 00:33:59,    275,    0.0,   10.5,   0.00,   0.00, 1013.9,    0.4, -999.0
08-08-2023, 00:34:09,    274,    0.0,   10.5,   0.00,   0.00, 1013.9,    0.7, -999.0
08-08-2023, 00:34:20,    274,    0.0,   10.5,   0.00,   0.00, 1013.9,    0.8, -999.0
08-08-2023, 00:34:29,    275,    0.0,   10.5,   0.00,   0.00, 1013.9,    0.4, -999.0
08-08-2023, 00:34:39,    274,    0.3,   10.5,   0.00,   0.00, 1014.0,    0.7, -999.0
08-08-2023, 00:34:49,    273,    0.0,   10.5,   0.00,   0.00, 1014.0,    0.2, -999.0
08-08-2023, 00:34:59,    273,    0.0,   10.5,   0.00,   0.00, 1014.0,    1.3, -999.0
08-08-2023, 00:35:09,    273,    0.0,   10.5,   0.00,   0.00, 1013.9,    0.2, -999.0
08-08-2023, 00:35:19,    273,    0.0,   10.5,   0.00,   0.00, 1013.9,    0.4, -999.0
08-08-2023, 00:35:29,    273,    0.1,   10.5,   0.00,   0.00, 1013.9,    0.8, -999.0
08-08-2023, 00:35:39,    272,    0.0,   10.5,   0.00,   0.00, 1013.9,    0.7, -999.0
08-08-2023, 00:35:49,    272,    0.0,   10.5,   0.00,   0.00, 1013.9,    0.9, -999.0
08-08-2023, 00:35:59,    272,    0.0,   10.5,   0.00,   0.00, 1013.9,    0.6, -999.0
08-08-2023, 00:36:09,    272,    0.0,   10.4,   0.00,   0.00, 1013.9,    0.6, -999.0
08-08-2023, 00:36:19,    273,    0.0,   10.6,   0.00,   0.00, 1013.9,    0.5, -999.0
08-08-2023, 00:36:29,    273,    0.0,   10.6,   0.00,   0.00, 1013.9,    0.5, -999.0
08-08-2023, 00:36:39,    272,    0.2,   10.6,   0.00,   0.00, 1014.0,    0.5, -999.0
08-08-2023, 00:36:49,    272,    0.0,   10.5,   0.00,   0.00, 1013.9,    0.6, -999.0
08-08-2023, 00:36:59,    272,    0.0,   10.5,   0.00,   0.00, 1013.9,    0.7, -999.0
08-08-2023, 00:37:09,    272,    0.0,   10.5,   0.00,   0.00, 1013.9,    0.5, -999.0
08-08-2023, 00:37:19,    273,    0.0,   10.5,   0.00,   0.00, 1013.9,    0.6, -999.0
08-08-2023, 00:37:29,    272,    0.0,   10.5,   0.00,   0.00, 1013.9,    0.7, -999.0
08-08-2023, 00:37:39,    272,    0.0,   10.5,   0.00,   0.00, 1013.9,    0.5, -999.0
08-08-2023, 00:37:49,    273,    0.0,   10.5,   0.00,   0.00, 1013.9,    0.6, -999.0
08-08-2023, 00:37:59,    272,    0.0,   10.5,   0.00,   0.00, 1013.9,    0.5, -999.0
08-08-2023, 00:38:09,    272,    0.0,   10.5,   0.00,   0.00, 1013.9,    0.6, -999.0
08-08-2023, 00:38:19,    272,    0.0,   10.5,   0.00,   0.00, 1013.9,    0.7, -999.0
08-08-2023, 00:38:29,    273,    0.0,   10.5,   0.00,   0.00, 1013.9,    1.0, -999.0
08-08-2023, 00:38:39,    272,    0.0,   10.5,   0.00,   0.00, 1013.9,    0.6, -999.0
08-08-2023, 00:38:48,    272,    0.0,   10.5,   0.00,   0.00, 1013.8,    0.5, -999.0
08-08-2023, 00:38:59,    272,    0.0,   10.5,   0.00,   0.00, 1013.9,    0.6, -999.0
08-08-2023, 00:39:09,    272,    0.0,   10.5,   0.00,   0.00, 1013.9,    0.5, -999.0
08-08-2023, 00:39:19,    272,    0.0,   10.5,   0.00,   0.00, 1013.9,    0.4, -999.0
08-08-2023, 00:39:28,    272,    0.0,   10.5,   0.00,   0.00, 1013.9,    0.5, -999.0
08-08-2023, 00:39:39,    272,    0.0,   10.5,   0.00,   0.00, 1013.9,    0.8, -999.0
08-08-2023, 00:39:49,    272,    0.0,   10.5,   0.00,   0.00, 1013.9,    0.4, -999.0
08-08-2023, 00:39:58,    272,    0.0,   10.5,   0.00,   0.00, 1013.9,    0.7, -999.0
08-08-2023, 00:40:08,    272,    0.0,   10.5,   0.00,   0.00, 1013.9,    0.5, -999.0
08-08-2023, 00:40:19,    272,    0.0,   10.5,   0.00,   0.00, 1013.9,    0.6, -999.0
08-08-2023, 00:40:28,    271,    0.0,   10.5,   0.00,   0.00, 1013.9,    0.7, -999.0
08-08-2023, 00:40:38,    272,    0.0,   10.5,   0.00,   0.00, 1013.8,    1.0, -999.0
08-08-2023, 00:40:48,    272,    0.1,   10.4,   0.00,   0.00, 1013.9,    0.7, -999.0
08-08-2023, 00:40:59,    272,    0.0,   10.4,   0.00,   0.00, 1013.8,    0.5, -999.0
08-08-2023, 00:41:08,    272,    0.0,   10.4,   0.00,   0.00, 1013.8,    0.7, -999.0
08-08-2023, 00:41:18,    272,    0.0,   10.3,   0.00,   0.00, 1013.8,    0.5, -999.0
08-08-2023, 00:41:28,    273,    0.0,   10.4,   0.00,   0.00, 1013.8,    0.5, -999.0
08-08-2023, 00:41:38,    272,    0.1,   10.4,   0.00,   0.00, 1013.8,    0.5, -999.0
08-08-2023, 00:41:48,    272,    0.1,   10.4,   0.00,   0.00, 1013.9,    0.8, -999.0
08-08-2023, 00:41:58,    272,    0.0,   10.5,   0.00,   0.00, 1013.8,    0.5, -999.0
08-08-2023, 00:42:08,    272,    0.0,   10.5,   0.00,   0.00, 1013.8,    0.7, -999.0
08-08-2023, 00:42:18,    272,    0.0,   10.4,   0.00,   0.00, 1013.8,    0.6, -999.0
08-08-2023, 00:42:28,    272,    0.0,   10.4,   0.00,   0.00, 1013.8,    0.6, -999.0
08-08-2023, 00:42:38,    273,    0.0,   10.5,   0.00,   0.00, 1013.8,    0.5, -999.0
08-08-2023, 00:42:48,    272,    0.0,   10.5,   0.00,   0.00, 1013.8,    0.8, -999.0
08-08-2023, 00:42:58,    273,    0.4,   10.5,   0.00,   0.00, 1013.9,    0.4, -999.0
08-08-2023, 00:43:08,    273,    1.1,   10.5,   0.00,   0.00, 1013.9,    0.9, -999.0
08-08-2023, 00:43:18,    272,    0.2,   10.5,   0.00,   0.00, 1013.9,    0.7, -999.0
08-08-2023, 00:43:28,    272,    0.0,   10.4,   0.00,   0.00, 1013.7,    0.6, -999.0
08-08-2023, 00:43:38,    272,    0.0,   10.5,   0.00,   0.00, 1013.8,    0.4, -999.0
08-08-2023, 00:43:48,    272,    0.0,   10.5,   0.00,   0.00, 1013.8,    0.5, -999.0
08-08-2023, 00:43:58,    272,    0.0,   10.5,   0.00,   0.00, 1013.8,    0.8, -999.0
08-08-2023, 00:44:08,    272,    0.0,   10.4,   0.00,   0.00, 1013.8,    0.5, -999.0
08-08-2023, 00:44:18,    273,    0.3,   10.5,   0.00,   0.00, 1013.9,    0.8, -999.0
08-08-2023, 00:44:28,    273,    0.0,   10.5,   0.00,   0.00, 1013.8,    0.6, -999.0
08-08-2023, 00:44:38,    273,    0.0,   10.5,   0.00,   0.00, 1013.7,    0.6, -999.0
08-08-2023, 00:44:48,    273,    0.0,   10.4,   0.00,   0.00, 1013.7,    0.6, -999.0
08-08-2023, 00:44:58,    273,    0.0,   10.4,   0.00,   0.00, 1013.7,    0.5, -999.0
08-08-2023, 00:45:08,    273,    0.0,   10.5,   0.00,   0.00, 1013.7,    0.5, -999.0
08-08-2023, 00:45:18,    272,    0.0,   10.5,   0.00,   0.00, 1013.7,    0.7, -999.0
08-08-2023, 00:45:28,    272,    0.0,   10.5,   0.00,   0.00, 1013.7,    0.7, -999.0
08-08-2023, 00:45:38,    273,    0.0,   10.5,   0.00,   0.00, 1013.7,    0.7, -999.0
08-08-2023, 00:45:48,    273,    0.0,   10.5,   0.00,   0.00, 1013.7,    0.4, -999.0
08-08-2023, 00:45:57,    272,    0.0,   10.5,   0.00,   0.00, 1013.7,    0.5, -999.0
08-08-2023, 00:46:08,    272,    0.0,   10.4,   0.00,   0.00, 1013.7,    0.7, -999.0
08-08-2023, 00:46:18,    273,    0.0,   10.5,   0.00,   0.00, 1013.7,    0.6, -999.0
08-08-2023, 00:46:28,    272,    0.0,   10.5,   0.00,   0.00, 1013.7,    0.7, -999.0
08-08-2023, 00:46:37,    272,    0.0,   10.4,   0.00,   0.00, 1013.7,    0.6, -999.0
08-08-2023, 00:46:48,    272,    0.0,   10.4,   0.00,   0.00, 1013.7,    0.4, -999.0